Regional Weather Roundup
Issued by NWS

Home | Current Version | Previous Version | Text Only | Print | Product List | Glossary On
Versions: 1 2 3 4 5 6 7 8 9 10 11 12 13 14 15 16 17 18 19 20 21 22 23 24 25 26 27
000
ASUS42 KKEY 231710
RWRKEY

FLORIDA REGIONAL WEATHER ROUNDUP FOR THE FLORIDA KEYS
NATIONAL WEATHER SERVICE KEY WEST FLORIDA
1200 PM EST THU FEB 23 2017

...SOUTH FLORIDA AND THE KEYS...

CITY           SKY/WX    TMP DP  RH WIND       PRES   REMARKS
FORT MYERS     PTSUNNY   72  60  66 W10       29.66S
SW REGIONAL AP MOSUNNY   73  58  59 NW8       29.66S
NAPLES         PTSUNNY   73  61  65 W16       29.67F
MIAMI          MOSUNNY   76  59  55 SW12      29.67F
WEST KENDALL   PTSUNNY   77  59  53 W13       29.67F
HOMESTEAD      LGT RAIN  72  66  83 SW15      29.67F
MARATHON       MOSUNNY   77  65  66 W9        29.70F
BOCA CHICA NAS MOSUNNY   74  62  66 W16       29.71F
KEY WEST INTL  SUNNY     75  63  66 W15       29.71F

...INTERNATIONAL WEATHER...

CITY           SKY/WX    TMP DP  RH WIND       PRES   REMARKS
NASSAU BAHAMAS NOT AVBL
CANCUN MEXICO  MOSUNNY   79  59  50 W5G17     29.84F
COZUMEL MEXICO SUNNY     79  59  50 N12       29.83F

ADJACENT COASTAL WATERS...

STATION/POSITION TIME  SKY/WX   TEMP    WIND        PRES    WAVE
                                AIR SEA DIR/SP/G            HT/PER
                 (UTC)          (F)     (DEG/KT/KT) (MB)    (FT/S)
PULASKI SHOAL LI 1700            72     310/ 11/ 12 1006.4F
SAND KEY         1650            72     300/ 16/ 18 1006.9S
LONG KEY         1600            71 72  280/  9/ 10 1006.3F
MOLASSES REEF    1600            70 74  270/ 18/ 20 1006.0
FOWEY ROCKS      1600            72 74  220/ 11/ 12 1005.9F
Buoy 42097       1630                                 N/A     6/ 8

$$




USA.gov is the U.S. government's official web portal to all federal, state and local government web resources and services.